PRIVATE WETTERSTATION BILLIGHEIM-ALLFELD                       ZURCK
Wetterdaten: Sonntag, 27.02.2022
Datum Zeit Temp. A. Temp. A. min Temp. A. max Feuchte A. Luftdruck Regen Wind Richtung Richtung Sonnenschein ET Solar Taupunkt Windchill Windben Empfang
27.02.2022 00:00 1,5 C 1,4 C 1,6 C 82 % 1032,4 hPa 0,0 l/m 0,0 km/h (0 Bft) N 0 0 min 0,000 mm 0 W/m -1,2 C 1,5 C 0,0 km/h (0 Bft) 98 %
27.02.2022 00:10 1,5 C 1,5 C 1,6 C 83 % 1032,3 hPa 0,0 l/m 0,0 km/h (0 Bft) N 0 0 min 0,000 mm 0 W/m -1,1 C 1,5 C 0,0 km/h (0 Bft) 87 %
27.02.2022 00:20 1,4 C 1,4 C 1,5 C 83 % 1032,4 hPa 0,0 l/m 0,0 km/h (0 Bft) N 0 0 min 0,000 mm 0 W/m -1,2 C 1,4 C 0,0 km/h (0 Bft) 96 %
27.02.2022 00:30 1,4 C 1,4 C 1,4 C 82 % 1032,2 hPa 0,0 l/m 0,0 km/h (0 Bft) O-NO 67 0 min 0,000 mm 0 W/m -1,3 C 1,4 C 4,8 km/h (1 Bft) 98 %
27.02.2022 00:40 1,3 C 1,3 C 1,4 C 83 % 1032,2 hPa 0,0 l/m 0,0 km/h (0 Bft) N 0 0 min 0,000 mm 0 W/m -1,3 C 1,3 C 0,0 km/h (0 Bft) 97 %
27.02.2022 00:50 1,1 C 1,1 C 1,3 C 83 % 1032,2 hPa 0,0 l/m 0,0 km/h (0 Bft) N 0 0 min 0,000 mm 0 W/m -1,5 C 1,1 C 0,0 km/h (0 Bft) 98 %
27.02.2022 01:00 0,8 C 0,8 C 1,0 C 84 % 1032,1 hPa 0,0 l/m 0,0 km/h (0 Bft) N 0 0 min 0,000 mm 0 W/m -1,6 C 0,8 C 0,0 km/h (0 Bft) 97 %
27.02.2022 01:10 0,6 C 0,6 C 0,8 C 84 % 1032,1 hPa 0,0 l/m 0,0 km/h (0 Bft) N 0 0 min 0,000 mm 0 W/m -1,8 C 0,6 C 0,0 km/h (0 Bft) 98 %
27.02.2022 01:20 0,3 C 0,3 C 0,6 C 85 % 1032,1 hPa 0,0 l/m 0,0 km/h (0 Bft) N 0 0 min 0,000 mm 0 W/m -1,9 C 0,3 C 0,0 km/h (0 Bft) 98 %
27.02.2022 01:30 0,2 C 0,2 C 0,3 C 85 % 1032,1 hPa 0,0 l/m 0,0 km/h (0 Bft) N 0 0 min 0,000 mm 0 W/m -2,0 C 0,2 C 0,0 km/h (0 Bft) 97 %
27.02.2022 01:40 0,2 C 0,1 C 0,2 C 85 % 1032,1 hPa 0,0 l/m 0,0 km/h (0 Bft) N 0 0 min 0,000 mm 0 W/m -2,0 C 0,2 C 0,0 km/h (0 Bft) 98 %
27.02.2022 01:50 0,2 C 0,2 C 0,2 C 85 % 1032,0 hPa 0,0 l/m 0,0 km/h (0 Bft) O-NO 67 0 min 0,000 mm 0 W/m -2,0 C 0,2 C 3,2 km/h (1 Bft) 97 %
27.02.2022 02:00 0,3 C 0,2 C 0,3 C 85 % 1032,0 hPa 0,0 l/m 0,0 km/h (0 Bft) N 0 0 min 0,000 mm 0 W/m -1,9 C 0,3 C 0,0 km/h (0 Bft) 98 %
27.02.2022 02:10 0,3 C 0,2 C 0,3 C 85 % 1032,1 hPa 0,0 l/m 0,0 km/h (0 Bft) O-NO 67 0 min 0,000 mm 0 W/m -1,9 C 0,3 C 4,8 km/h (1 Bft) 97 %
27.02.2022 02:20 0,3 C 0,3 C 0,3 C 85 % 1031,9 hPa 0,0 l/m 0,0 km/h (0 Bft) O-NO 67 0 min 0,000 mm 0 W/m -1,9 C 0,3 C 6,4 km/h (2 Bft) 98 %
27.02.2022 02:30 0,3 C 0,3 C 0,3 C 84 % 1031,9 hPa 0,0 l/m 0,0 km/h (0 Bft) N 0 0 min 0,000 mm 0 W/m -2,1 C 0,3 C 0,0 km/h (0 Bft) 99 %
27.02.2022 02:40 0,4 C 0,3 C 0,4 C 84 % 1031,9 hPa 0,0 l/m 0,0 km/h (0 Bft) O-NO 67 0 min 0,000 mm 0 W/m -2,0 C 0,4 C 4,8 km/h (1 Bft) 99 %
27.02.2022 02:50 0,4 C 0,4 C 0,4 C 84 % 1031,7 hPa 0,0 l/m 0,0 km/h (0 Bft) N 0 0 min 0,000 mm 0 W/m -2,0 C 0,4 C 0,0 km/h (0 Bft) 100 %
27.02.2022 03:00 0,5 C 0,4 C 0,5 C 83 % 1031,7 hPa 0,0 l/m 0,0 km/h (0 Bft) O-NO 67 0 min 0,000 mm 0 W/m -2,0 C 0,5 C 1,6 km/h (1 Bft) 90 %
27.02.2022 03:10 0,4 C 0,4 C 0,5 C 83 % 1031,7 hPa 0,0 l/m 0,0 km/h (0 Bft) N 0 0 min 0,000 mm 0 W/m -2,1 C 0,4 C 0,0 km/h (0 Bft) 100 %
27.02.2022 03:20 0,3 C 0,3 C 0,4 C 84 % 1031,6 hPa 0,0 l/m 0,0 km/h (0 Bft) N 0 0 min 0,000 mm 0 W/m -2,1 C 0,3 C 0,0 km/h (0 Bft) 100 %
27.02.2022 03:30 0,2 C 0,2 C 0,3 C 85 % 1031,5 hPa 0,0 l/m 0,0 km/h (0 Bft) O-NO 67 0 min 0,000 mm 0 W/m -2,0 C 0,2 C 4,8 km/h (1 Bft) 100 %
27.02.2022 03:40 0,1 C 0,1 C 0,2 C 85 % 1031,5 hPa 0,0 l/m 0,0 km/h (0 Bft) O-NO 67 0 min 0,000 mm 0 W/m -2,1 C 0,1 C 4,8 km/h (1 Bft) 100 %
27.02.2022 03:50 0,1 C 0,1 C 0,1 C 85 % 1031,5 hPa 0,0 l/m 0,0 km/h (0 Bft) O-NO 67 0 min 0,000 mm 0 W/m -2,1 C 0,1 C 3,2 km/h (1 Bft) 100 %
27.02.2022 04:00 0,0 C 0,0 C 0,1 C 86 % 1031,3 hPa 0,0 l/m 0,0 km/h (0 Bft) N 0 0 min 0,000 mm 0 W/m -2,1 C 0,0 C 0,0 km/h (0 Bft) 100 %
27.02.2022 04:10 0,0 C 0,0 C 0,1 C 85 % 1031,3 hPa 0,0 l/m 0,0 km/h (0 Bft) N 0 0 min 0,000 mm 0 W/m -2,2 C 0,0 C 0,0 km/h (0 Bft) 100 %
27.02.2022 04:20 -0,1 C -0,1 C 0,1 C 86 % 1031,4 hPa 0,0 l/m 0,0 km/h (0 Bft) O-NO 67 0 min 0,000 mm 0 W/m -2,2 C -0,1 C 3,2 km/h (1 Bft) 91 %
27.02.2022 04:30 -0,2 C -0,2 C -0,1 C 86 % 1031,3 hPa 0,0 l/m 0,0 km/h (0 Bft) N 0 0 min 0,000 mm 0 W/m -2,3 C -0,2 C 0,0 km/h (0 Bft) 100 %
27.02.2022 04:40 -0,2 C -0,2 C -0,2 C 87 % 1031,3 hPa 0,0 l/m 0,0 km/h (0 Bft) O-NO 67 0 min 0,000 mm 0 W/m -2,1 C -0,2 C 4,8 km/h (1 Bft) 100 %
27.02.2022 04:50 -0,2 C -0,2 C -0,2 C 87 % 1031,3 hPa 0,0 l/m 0,0 km/h (0 Bft) N 0 0 min 0,000 mm 0 W/m -2,1 C -0,2 C 0,0 km/h (0 Bft) 100 %
27.02.2022 05:00 -0,2 C -0,2 C -0,2 C 87 % 1031,4 hPa 0,0 l/m 0,0 km/h (0 Bft) N 0 0 min 0,000 mm 0 W/m -2,1 C -0,2 C 0,0 km/h (0 Bft) 100 %
27.02.2022 05:10 -0,2 C -0,2 C -0,2 C 87 % 1031,4 hPa 0,0 l/m 0,0 km/h (0 Bft) N 0 0 min 0,000 mm 0 W/m -2,1 C -0,2 C 0,0 km/h (0 Bft) 100 %
27.02.2022 05:20 -0,1 C -0,2 C -0,1 C 87 % 1031,4 hPa 0,0 l/m 0,0 km/h (0 Bft) N 0 0 min 0,000 mm 0 W/m -2,0 C -0,1 C 0,0 km/h (0 Bft) 100 %
27.02.2022 05:30 -0,2 C -0,2 C -0,1 C 87 % 1031,5 hPa 0,0 l/m 0,0 km/h (0 Bft) O-NO 67 0 min 0,000 mm 0 W/m -2,1 C -0,2 C 3,2 km/h (1 Bft) 100 %
27.02.2022 05:40 -0,2 C -0,2 C -0,1 C 87 % 1031,6 hPa 0,0 l/m 0,0 km/h (0 Bft) N 0 0 min 0,000 mm 0 W/m -2,1 C -0,2 C 0,0 km/h (0 Bft) 100 %
27.02.2022 05:50 -0,3 C -0,3 C -0,2 C 87 % 1031,4 hPa 0,0 l/m 0,0 km/h (0 Bft) O-NO 67 0 min 0,000 mm 0 W/m -2,2 C -0,3 C 4,8 km/h (1 Bft) 100 %
27.02.2022 06:00 -0,3 C -0,3 C -0,3 C 87 % 1031,5 hPa 0,0 l/m 0,0 km/h (0 Bft) N 0 0 min 0,000 mm 0 W/m -2,2 C -0,3 C 0,0 km/h (0 Bft) 100 %
27.02.2022 06:10 -0,2 C -0,3 C -0,2 C 87 % 1031,6 hPa 0,0 l/m 0,0 km/h (0 Bft) O-NO 67 0 min 0,000 mm 0 W/m -2,1 C -0,2 C 4,8 km/h (1 Bft) 100 %
27.02.2022 06:20 -0,2 C -0,2 C -0,2 C 87 % 1031,6 hPa 0,0 l/m 0,0 km/h (0 Bft) O-NO 67 0 min 0,000 mm 0 W/m -2,1 C -0,2 C 4,8 km/h (1 Bft) 100 %
27.02.2022 06:30 -0,3 C -0,3 C -0,2 C 87 % 1031,6 hPa 0,0 l/m 0,0 km/h (0 Bft) O-NO 67 0 min 0,000 mm 0 W/m -2,2 C -0,3 C 8,0 km/h (2 Bft) 100 %
27.02.2022 06:40 -0,4 C -0,4 C -0,3 C 88 % 1031,7 hPa 0,0 l/m 0,0 km/h (0 Bft) N 0 0 min 0,000 mm 0 W/m -2,1 C -0,4 C 0,0 km/h (0 Bft) 100 %
27.02.2022 06:50 -0,4 C -0,4 C -0,4 C 88 % 1031,8 hPa 0,0 l/m 0,0 km/h (0 Bft) O-NO 67 0 min 0,000 mm 0 W/m -2,1 C -0,4 C 3,2 km/h (1 Bft) 100 %
27.02.2022 07:00 -0,5 C -0,5 C -0,4 C 88 % 1031,9 hPa 0,0 l/m 0,0 km/h (0 Bft) O-NO 67 0 min 0,000 mm 0 W/m -2,2 C -0,5 C 3,2 km/h (1 Bft) 100 %
27.02.2022 07:10 -0,5 C -0,6 C -0,5 C 89 % 1032,0 hPa 0,0 l/m 0,0 km/h (0 Bft) N 0 0 min 0,000 mm 0 W/m -2,1 C -0,5 C 0,0 km/h (0 Bft) 100 %
27.02.2022 07:20 -0,6 C -0,6 C -0,5 C 89 % 1032,2 hPa 0,0 l/m 0,0 km/h (0 Bft) O-NO 67 0 min 0,000 mm 9 W/m -2,2 C -0,6 C 3,2 km/h (1 Bft) 100 %
27.02.2022 07:30 -0,6 C -0,6 C -0,6 C 89 % 1032,0 hPa 0,0 l/m 0,0 km/h (0 Bft) N 0 0 min 0,000 mm 12 W/m -2,2 C -0,6 C 0,0 km/h (0 Bft) 100 %
27.02.2022 07:40 -0,6 C -0,6 C -0,6 C 89 % 1032,2 hPa 0,0 l/m 0,0 km/h (0 Bft) O-NO 67 0 min 0,000 mm 18 W/m -2,2 C -0,6 C 3,2 km/h (1 Bft) 100 %
27.02.2022 07:50 -0,6 C -0,6 C -0,6 C 89 % 1032,2 hPa 0,0 l/m 0,0 km/h (0 Bft) O 90 0 min 0,000 mm 21 W/m -2,2 C -0,6 C 4,8 km/h (1 Bft) 100 %
27.02.2022 08:00 -0,5 C -0,6 C -0,5 C 89 % 1032,4 hPa 0,0 l/m 0,0 km/h (0 Bft) O-NO 67 0 min 0,000 mm 37 W/m -2,1 C -0,5 C 4,8 km/h (1 Bft) 100 %
27.02.2022 08:10 -0,4 C -0,5 C -0,4 C 89 % 1032,4 hPa 0,0 l/m 0,0 km/h (0 Bft) O-NO 67 0 min 0,000 mm 35 W/m -2,0 C -0,4 C 1,6 km/h (1 Bft) 90 %
27.02.2022 08:20 -0,3 C -0,4 C -0,3 C 89 % 1032,5 hPa 0,0 l/m 0,0 km/h (0 Bft) N 0 0 min 0,000 mm 49 W/m -1,9 C -0,3 C 0,0 km/h (0 Bft) 100 %
27.02.2022 08:30 -0,2 C -0,3 C -0,2 C 89 % 1032,6 hPa 0,0 l/m 0,0 km/h (0 Bft) N 0 10 min 0,000 mm 169 W/m -1,8 C -0,2 C 0,0 km/h (0 Bft) 100 %
27.02.2022 08:40 0,2 C -0,2 C 0,2 C 89 % 1032,7 hPa 0,0 l/m 0,0 km/h (0 Bft) O-NO 67 10 min 0,000 mm 193 W/m -1,4 C 0,2 C 8,0 km/h (2 Bft) 100 %
27.02.2022 08:50 0,9 C 0,3 C 0,9 C 88 % 1032,7 hPa 0,0 l/m 0,0 km/h (0 Bft) O-NO 67 10 min 0,000 mm 214 W/m -0,9 C 0,9 C 4,8 km/h (1 Bft) 100 %
27.02.2022 09:00 1,4 C 0,9 C 1,4 C 86 % 1032,7 hPa 0,0 l/m 0,0 km/h (0 Bft) N 0 10 min 0,051 mm 237 W/m -0,7 C 1,4 C 0,0 km/h (0 Bft) 100 %
27.02.2022 09:10 1,9 C 1,4 C 1,9 C 85 % 1032,7 hPa 0,0 l/m 0,0 km/h (0 Bft) O-NO 67 10 min 0,000 mm 262 W/m -0,3 C 1,9 C 6,4 km/h (2 Bft) 100 %
27.02.2022 09:20 2,2 C 1,9 C 2,2 C 85 % 1032,7 hPa 0,0 l/m 0,0 km/h (0 Bft) N 0 10 min 0,000 mm 287 W/m -0,1 C 2,2 C 0,0 km/h (0 Bft) 100 %
27.02.2022 09:30 2,4 C 2,2 C 2,4 C 83 % 1032,8 hPa 0,0 l/m 0,0 km/h (0 Bft) N 0 10 min 0,000 mm 306 W/m -0,2 C 2,4 C 0,0 km/h (0 Bft) 100 %
27.02.2022 09:40 2,5 C 2,4 C 2,5 C 83 % 1032,7 hPa 0,0 l/m 0,0 km/h (0 Bft) N 0 10 min 0,000 mm 325 W/m -0,1 C 2,5 C 0,0 km/h (0 Bft) 100 %
27.02.2022 09:50 2,9 C 2,6 C 2,9 C 81 % 1032,8 hPa 0,0 l/m 0,0 km/h (0 Bft) O-NO 67 10 min 0,000 mm 350 W/m -0,0 C 2,9 C 11,3 km/h (2 Bft) 100 %
27.02.2022 10:00 3,5 C 2,9 C 3,5 C 79 % 1032,8 hPa 0,0 l/m 3,2 km/h (1 Bft) O-SO 112 10 min 0,102 mm 371 W/m 0,2 C 3,5 C 20,9 km/h (4 Bft) 100 %
27.02.2022 10:10 4,0 C 3,5 C 4,0 C 78 % 1032,8 hPa 0,0 l/m 1,6 km/h (1 Bft) O 90 10 min 0,000 mm 388 W/m 0,5 C 4,0 C 8,0 km/h (2 Bft) 100 %
27.02.2022 10:20 4,6 C 4,1 C 4,6 C 75 % 1032,6 hPa 0,0 l/m 1,6 km/h (1 Bft) O-SO 112 10 min 0,000 mm 408 W/m 0,6 C 4,6 C 14,5 km/h (3 Bft) 100 %
27.02.2022 10:30 4,8 C 4,6 C 4,8 C 72 % 1032,7 hPa 0,0 l/m 4,8 km/h (1 Bft) O-SO 112 10 min 0,000 mm 425 W/m 0,2 C 4,8 C 14,5 km/h (3 Bft) 100 %
27.02.2022 10:40 5,1 C 4,8 C 5,1 C 71 % 1032,6 hPa 0,0 l/m 3,2 km/h (1 Bft) O 90 10 min 0,000 mm 439 W/m 0,3 C 5,1 C 22,5 km/h (4 Bft) 100 %
27.02.2022 10:50 5,6 C 5,1 C 5,6 C 70 % 1032,6 hPa 0,0 l/m 1,6 km/h (1 Bft) S-SO 157 10 min 0,000 mm 461 W/m 0,6 C 5,6 C 11,3 km/h (2 Bft) 100 %
27.02.2022 11:00 5,4 C 5,4 C 5,7 C 66 % 1032,6 hPa 0,0 l/m 8,0 km/h (2 Bft) O-SO 112 10 min 0,178 mm 476 W/m -0,4 C 4,0 C 25,7 km/h (4 Bft) 100 %
27.02.2022 11:10 5,7 C 5,4 C 5,7 C 66 % 1032,4 hPa 0,0 l/m 4,8 km/h (1 Bft) O-SO 112 10 min 0,000 mm 492 W/m -0,1 C 5,7 C 20,9 km/h (4 Bft) 100 %
27.02.2022 11:20 5,5 C 5,4 C 5,7 C 67 % 1032,5 hPa 0,0 l/m 8,0 km/h (2 Bft) SO 135 10 min 0,000 mm 552 W/m -0,1 C 4,1 C 19,3 km/h (3 Bft) 100 %
27.02.2022 11:30 5,8 C 5,5 C 5,8 C 66 % 1032,5 hPa 0,0 l/m 8,0 km/h (2 Bft) O-SO 112 10 min 0,000 mm 598 W/m -0,0 C 4,4 C 24,1 km/h (4 Bft) 99 %
27.02.2022 11:40 6,1 C 5,5 C 6,1 C 65 % 1032,4 hPa 0,0 l/m 8,6 km/h (2 Bft) O-SO 113 10 min 0,000 mm 589 W/m 0,0 C 4,3 C 16,1 km/h (3 Bft) 98 %
27.02.2022 11:50 6,2 C 6,1 C 6,3 C 63 % 1032,3 hPa 0,0 l/m 5,4 km/h (1 Bft) O-SO 107 10 min 0,000 mm 608 W/m -0,3 C 6,2 C 19,3 km/h (3 Bft) 98 %
27.02.2022 12:00 6,2 C 6,0 C 6,2 C 66 % 1032,2 hPa 0,0 l/m 8,3 km/h (2 Bft) O 86 10 min 0,228 mm 679 W/m 0,3 C 4,6 C 24,1 km/h (4 Bft) 97 %
27.02.2022 12:10 6,8 C 6,2 C 6,8 C 61 % 1032,1 hPa 0,0 l/m 5,4 km/h (1 Bft) O-SO 103 10 min 0,000 mm 670 W/m -0,2 C 6,8 C 22,5 km/h (4 Bft) 98 %
27.02.2022 12:20 7,0 C 6,8 C 7,0 C 61 % 1032,1 hPa 0,0 l/m 4,9 km/h (1 Bft) O-NO 71 10 min 0,000 mm 629 W/m 0,0 C 7,0 C 17,7 km/h (3 Bft) 100 %
27.02.2022 12:30 6,8 C 6,8 C 7,0 C 57 % 1032,0 hPa 0,0 l/m 3,2 km/h (1 Bft) SO 124 10 min 0,000 mm 624 W/m -1,1 C 6,8 C 19,3 km/h (3 Bft) 100 %
27.02.2022 12:40 6,7 C 6,7 C 6,9 C 56 % 1031,9 hPa 0,0 l/m 6,6 km/h (2 Bft) O 82 10 min 0,000 mm 213 W/m -1,4 C 6,6 C 27,4 km/h (4 Bft) 100 %
27.02.2022 12:50 6,2 C 6,2 C 6,7 C 57 % 1031,8 hPa 0,0 l/m 8,5 km/h (2 Bft) O 83 10 min 0,000 mm 334 W/m -1,7 C 4,5 C 27,4 km/h (4 Bft) 100 %
27.02.2022 13:00 6,4 C 6,2 C 6,4 C 58 % 1031,6 hPa 0,0 l/m 5,3 km/h (1 Bft) SO 139 10 min 0,228 mm 531 W/m -1,2 C 6,4 C 30,6 km/h (5 Bft) 100 %
27.02.2022 13:10 6,6 C 6,4 C 6,7 C 58 % 1031,6 hPa 0,0 l/m 7,9 km/h (2 Bft) SO 139 10 min 0,000 mm 538 W/m -1,1 C 5,4 C 25,7 km/h (4 Bft) 100 %
27.02.2022 13:20 6,8 C 6,6 C 6,8 C 60 % 1031,5 hPa 0,0 l/m 3,2 km/h (1 Bft) O-NO 57 10 min 0,000 mm 531 W/m -0,4 C 6,8 C 19,3 km/h (3 Bft) 100 %
27.02.2022 13:30 7,2 C 6,8 C 7,2 C 57 % 1031,3 hPa 0,0 l/m 2,3 km/h (1 Bft) O 86 10 min 0,000 mm 519 W/m -0,7 C 7,2 C 22,5 km/h (4 Bft) 99 %
27.02.2022 13:40 7,1 C 7,1 C 7,3 C 60 % 1031,4 hPa 0,0 l/m 5,5 km/h (1 Bft) O-SO 105 10 min 0,000 mm 508 W/m -0,1 C 7,1 C 22,5 km/h (4 Bft) 99 %
27.02.2022 13:50 7,3 C 7,1 C 7,3 C 58 % 1031,3 hPa 0,0 l/m 3,1 km/h (1 Bft) O-SO 119 10 min 0,000 mm 313 W/m -0,4 C 7,3 C 19,3 km/h (3 Bft) 100 %
27.02.2022 14:00 7,6 C 7,2 C 7,6 C 56 % 1031,2 hPa 0,0 l/m 1,2 km/h (1 Bft) O 84 10 min 0,229 mm 485 W/m -0,6 C 7,6 C 11,3 km/h (2 Bft) 100 %
27.02.2022 14:10 7,4 C 7,4 C 7,6 C 56 % 1031,2 hPa 0,0 l/m 2,3 km/h (1 Bft) O-NO 71 10 min 0,000 mm 468 W/m -0,8 C 7,4 C 17,7 km/h (3 Bft) 100 %
27.02.2022 14:20 7,3 C 7,3 C 7,4 C 54 % 1031,1 hPa 0,0 l/m 4,9 km/h (1 Bft) O 80 10 min 0,000 mm 455 W/m -1,4 C 7,3 C 24,1 km/h (4 Bft) 100 %
27.02.2022 14:30 7,4 C 7,3 C 7,4 C 56 % 1031,0 hPa 0,0 l/m 2,5 km/h (1 Bft) SO 125 10 min 0,000 mm 441 W/m -0,8 C 7,4 C 20,9 km/h (4 Bft) 100 %
27.02.2022 14:40 7,5 C 7,4 C 7,6 C 57 % 1031,0 hPa 0,0 l/m 4,2 km/h (1 Bft) SO 136 10 min 0,000 mm 427 W/m -0,5 C 7,5 C 17,7 km/h (3 Bft) 100 %
27.02.2022 14:50 7,5 C 7,3 C 7,5 C 59 % 1031,0 hPa 0,0 l/m 2,2 km/h (1 Bft) O-SO 106 10 min 0,000 mm 411 W/m 0,0 C 7,5 C 16,1 km/h (3 Bft) 100 %
27.02.2022 15:00 7,7 C 7,5 C 7,7 C 55 % 1030,9 hPa 0,0 l/m 3,1 km/h (1 Bft) SO 128 10 min 0,203 mm 388 W/m -0,8 C 7,7 C 19,3 km/h (3 Bft) 100 %
27.02.2022 15:10 7,8 C 7,6 C 7,8 C 58 % 1030,7 hPa 0,0 l/m 1,2 km/h (1 Bft) NO 45 10 min 0,000 mm 369 W/m 0,1 C 7,8 C 17,7 km/h (3 Bft) 100 %
27.02.2022 15:20 8,0 C 7,7 C 8,0 C 56 % 1030,7 hPa 0,0 l/m 1,0 km/h (0 Bft) O-NO 61 10 min 0,000 mm 345 W/m -0,2 C 8,0 C 16,1 km/h (3 Bft) 100 %
27.02.2022 15:30 8,3 C 8,0 C 8,3 C 55 % 1030,7 hPa 0,0 l/m 0,1 km/h (0 Bft) O-NO 57 10 min 0,000 mm 329 W/m -0,2 C 8,3 C 8,0 km/h (2 Bft) 100 %
27.02.2022 15:40 7,8 C 7,8 C 8,3 C 53 % 1030,7 hPa 0,0 l/m 1,3 km/h (1 Bft) O-SO 102 10 min 0,000 mm 304 W/m -1,2 C 7,8 C 14,5 km/h (3 Bft) 100 %
27.02.2022 15:50 7,8 C 7,7 C 7,8 C 56 % 1030,7 hPa 0,0 l/m 0,5 km/h (0 Bft) NO 53 10 min 0,000 mm 283 W/m -0,4 C 7,8 C 9,7 km/h (2 Bft) 100 %
27.02.2022 16:00 7,8 C 7,8 C 7,9 C 52 % 1030,7 hPa 0,0 l/m 0,9 km/h (0 Bft) O 97 10 min 0,153 mm 260 W/m -1,4 C 7,8 C 11,3 km/h (2 Bft) 100 %
27.02.2022 16:10 7,7 C 7,7 C 7,8 C 53 % 1030,7 hPa 0,0 l/m 1,0 km/h (0 Bft) O 83 10 min 0,000 mm 230 W/m -1,3 C 7,7 C 20,9 km/h (4 Bft) 100 %
27.02.2022 16:20 7,6 C 7,6 C 7,7 C 54 % 1030,6 hPa 0,0 l/m 1,0 km/h (0 Bft) O-SO 108 10 min 0,000 mm 202 W/m -1,1 C 7,6 C 9,7 km/h (2 Bft) 100 %
27.02.2022 16:30 7,4 C 7,4 C 7,6 C 53 % 1030,5 hPa 0,0 l/m 1,8 km/h (1 Bft) O 97 10 min 0,000 mm 169 W/m -1,5 C 7,4 C 17,7 km/h (3 Bft) 100 %
27.02.2022 16:40 7,4 C 7,4 C 7,4 C 54 % 1030,7 hPa 0,0 l/m 0,2 km/h (0 Bft) O-NO 67 0 min 0,000 mm 137 W/m -1,3 C 7,4 C 9,7 km/h (2 Bft) 100 %
27.02.2022 16:50 7,5 C 7,4 C 7,5 C 54 % 1030,4 hPa 0,0 l/m 0,1 km/h (0 Bft) O-NO 70 0 min 0,000 mm 109 W/m -1,2 C 7,5 C 4,8 km/h (1 Bft) 99 %
27.02.2022 17:00 7,2 C 7,2 C 7,5 C 54 % 1030,5 hPa 0,0 l/m 0,1 km/h (0 Bft) NO 55 0 min 0,076 mm 32 W/m -1,5 C 7,2 C 6,4 km/h (2 Bft) 97 %
27.02.2022 17:10 6,8 C 6,8 C 7,2 C 53 % 1030,5 hPa 0,0 l/m 0,3 km/h (0 Bft) O-NO 58 0 min 0,000 mm 28 W/m -2,1 C 6,8 C 8,0 km/h (2 Bft) 97 %
27.02.2022 17:20 6,5 C 6,5 C 6,8 C 55 % 1030,3 hPa 0,0 l/m 0,3 km/h (0 Bft) O-SO 116 0 min 0,000 mm 25 W/m -1,9 C 6,5 C 14,5 km/h (3 Bft) 97 %
27.02.2022 17:30 6,3 C 6,3 C 6,5 C 56 % 1030,5 hPa 0,0 l/m 0,1 km/h (0 Bft) O-NO 60 0 min 0,000 mm 21 W/m -1,8 C 6,3 C 4,8 km/h (1 Bft) 97 %
27.02.2022 17:40 6,1 C 6,1 C 6,3 C 56 % 1030,6 hPa 0,0 l/m 0,2 km/h (0 Bft) O-SO 117 0 min 0,000 mm 16 W/m -2,0 C 6,1 C 6,4 km/h (2 Bft) 98 %
27.02.2022 17:50 5,7 C 5,7 C 6,1 C 57 % 1030,6 hPa 0,0 l/m 0,0 km/h (0 Bft) NO 50 0 min 0,000 mm 11 W/m -2,1 C 5,7 C 4,8 km/h (1 Bft) 97 %
27.02.2022 18:00 5,5 C 5,5 C 5,7 C 57 % 1030,6 hPa 0,0 l/m 0,5 km/h (0 Bft) O 86 0 min 0,025 mm 5 W/m -2,3 C 5,5 C 14,5 km/h (3 Bft) 89 %
27.02.2022 18:10 5,2 C 5,2 C 5,5 C 58 % 1030,7 hPa 0,0 l/m 0,0 km/h (0 Bft) O-NO 76 0 min 0,000 mm 0 W/m -2,4 C 5,2 C 0,0 km/h (0 Bft) 97 %
27.02.2022 18:20 4,8 C 4,8 C 5,2 C 61 % 1031,0 hPa 0,0 l/m 0,0 km/h (0 Bft) O-NO 76 0 min 0,000 mm 0 W/m -2,1 C 4,8 C 0,0 km/h (0 Bft) 97 %
27.02.2022 18:30 4,4 C 4,4 C 4,8 C 62 % 1031,1 hPa 0,0 l/m 0,0 km/h (0 Bft) O-NO 76 0 min 0,000 mm 0 W/m -2,2 C 4,4 C 0,0 km/h (0 Bft) 97 %
27.02.2022 18:40 4,1 C 4,1 C 4,4 C 65 % 1031,2 hPa 0,0 l/m 0,0 km/h (0 Bft) O-NO 76 0 min 0,000 mm 0 W/m -1,9 C 4,1 C 0,0 km/h (0 Bft) 97 %
27.02.2022 18:50 3,8 C 3,8 C 4,1 C 66 % 1031,2 hPa 0,0 l/m 0,0 km/h (0 Bft) O-NO 76 0 min 0,000 mm 0 W/m -2,0 C 3,8 C 0,0 km/h (0 Bft) 98 %
27.02.2022 19:00 3,5 C 3,5 C 3,8 C 66 % 1031,2 hPa 0,0 l/m 0,0 km/h (0 Bft) O-NO 76 0 min 0,000 mm 0 W/m -2,2 C 3,5 C 0,0 km/h (0 Bft) 97 %
27.02.2022 19:10 3,3 C 3,3 C 3,5 C 67 % 1031,2 hPa 0,0 l/m 0,0 km/h (0 Bft) O 86 0 min 0,000 mm 0 W/m -2,2 C 3,3 C 0,0 km/h (0 Bft) 97 %
27.02.2022 19:20 3,1 C 3,1 C 3,3 C 68 % 1031,2 hPa 0,0 l/m 0,0 km/h (0 Bft) O 86 0 min 0,000 mm 0 W/m -2,2 C 3,1 C 0,0 km/h (0 Bft) 97 %
27.02.2022 19:30 3,0 C 3,0 C 3,1 C 68 % 1031,3 hPa 0,0 l/m 0,0 km/h (0 Bft) O 86 0 min 0,000 mm 0 W/m -2,3 C 3,0 C 0,0 km/h (0 Bft) 98 %
27.02.2022 19:40 2,8 C 2,8 C 3,0 C 69 % 1031,3 hPa 0,0 l/m 0,0 km/h (0 Bft) O 86 0 min 0,000 mm 0 W/m -2,3 C 2,8 C 0,0 km/h (0 Bft) 89 %
27.02.2022 19:50 2,6 C 2,6 C 2,8 C 70 % 1031,5 hPa 0,0 l/m 0,0 km/h (0 Bft) O 86 0 min 0,000 mm 0 W/m -2,3 C 2,6 C 0,0 km/h (0 Bft) 97 %
27.02.2022 20:00 2,6 C 2,6 C 2,6 C 69 % 1031,4 hPa 0,0 l/m 0,0 km/h (0 Bft) O 83 0 min 0,000 mm 0 W/m -2,5 C 2,6 C 0,0 km/h (0 Bft) 98 %
27.02.2022 20:10 2,4 C 2,4 C 2,6 C 69 % 1031,5 hPa 0,0 l/m 0,0 km/h (0 Bft) O 82 0 min 0,025 mm 0 W/m -2,7 C 2,4 C 0,0 km/h (0 Bft) 97 %
27.02.2022 20:20 2,4 C 2,4 C 2,4 C 69 % 1031,4 hPa 0,0 l/m 0,0 km/h (0 Bft) O-NO 76 0 min 0,001 mm 0 W/m -2,7 C 2,4 C 0,0 km/h (0 Bft) 88 %
27.02.2022 20:30 2,3 C 2,3 C 2,4 C 70 % 1031,4 hPa 0,0 l/m 0,0 km/h (0 Bft) O-NO 76 0 min 0,000 mm 0 W/m -2,6 C 2,3 C 0,0 km/h (0 Bft) 98 %
27.02.2022 20:40 2,3 C 2,3 C 2,3 C 70 % 1031,4 hPa 0,0 l/m 0,0 km/h (0 Bft) O 80 0 min 0,000 mm 0 W/m -2,6 C 2,3 C 0,0 km/h (0 Bft) 100 %
27.02.2022 20:50 2,2 C 2,2 C 2,3 C 69 % 1031,4 hPa 0,0 l/m 0,0 km/h (0 Bft) O 80 0 min 0,000 mm 0 W/m -2,9 C 2,2 C 0,0 km/h (0 Bft) 100 %
27.02.2022 21:00 2,1 C 2,1 C 2,2 C 70 % 1031,7 hPa 0,0 l/m 0,0 km/h (0 Bft) O 80 0 min 0,000 mm 0 W/m -2,8 C 2,1 C 0,0 km/h (0 Bft) 100 %
27.02.2022 21:10 1,9 C 1,9 C 2,1 C 70 % 1031,5 hPa 0,0 l/m 0,0 km/h (0 Bft) NO 45 0 min 0,000 mm 0 W/m -3,0 C 1,9 C 1,6 km/h (1 Bft) 100 %
27.02.2022 21:20 1,8 C 1,8 C 1,9 C 71 % 1031,6 hPa 0,0 l/m 0,0 km/h (0 Bft) N 0 0 min 0,000 mm 0 W/m -2,9 C 1,8 C 0,0 km/h (0 Bft) 100 %
27.02.2022 21:30 1,6 C 1,6 C 1,8 C 72 % 1031,4 hPa 0,0 l/m 0,0 km/h (0 Bft) N 0 0 min 0,000 mm 0 W/m -2,9 C 1,6 C 0,0 km/h (0 Bft) 100 %
27.02.2022 21:40 1,5 C 1,5 C 1,6 C 72 % 1031,5 hPa 0,0 l/m 0,0 km/h (0 Bft) N 0 0 min 0,000 mm 0 W/m -3,0 C 1,5 C 0,0 km/h (0 Bft) 100 %
27.02.2022 21:50 1,4 C 1,4 C 1,5 C 73 % 1031,6 hPa 0,0 l/m 0,0 km/h (0 Bft) N 0 0 min 0,000 mm 0 W/m -2,9 C 1,4 C 0,0 km/h (0 Bft) 100 %
27.02.2022 22:00 1,3 C 1,3 C 1,4 C 73 % 1031,5 hPa 0,0 l/m 0,0 km/h (0 Bft) N 0 0 min 0,025 mm 0 W/m -3,0 C 1,3 C 0,0 km/h (0 Bft) 90 %
27.02.2022 22:10 1,2 C 1,2 C 1,3 C 73 % 1031,4 hPa 0,0 l/m 0,0 km/h (0 Bft) N 0 0 min 0,000 mm 0 W/m -3,1 C 1,2 C 0,0 km/h (0 Bft) 100 %
27.02.2022 22:20 1,1 C 1,1 C 1,2 C 74 % 1031,3 hPa 0,0 l/m 0,0 km/h (0 Bft) N 0 0 min 0,000 mm 0 W/m -3,0 C 1,1 C 0,0 km/h (0 Bft) 100 %
27.02.2022 22:30 1,1 C 1,1 C 1,1 C 74 % 1031,3 hPa 0,0 l/m 0,0 km/h (0 Bft) N 0 0 min 0,000 mm 0 W/m -3,0 C 1,1 C 0,0 km/h (0 Bft) 100 %
27.02.2022 22:40 1,0 C 1,0 C 1,1 C 73 % 1031,2 hPa 0,0 l/m 0,0 km/h (0 Bft) N 0 0 min 0,000 mm 0 W/m -3,3 C 1,0 C 0,0 km/h (0 Bft) 100 %
27.02.2022 22:50 0,9 C 0,9 C 1,0 C 73 % 1031,3 hPa 0,0 l/m 0,0 km/h (0 Bft) N 0 0 min 0,000 mm 0 W/m -3,4 C 0,9 C 0,0 km/h (0 Bft) 100 %
27.02.2022 23:00 0,8 C 0,8 C 0,9 C 75 % 1031,4 hPa 0,0 l/m 0,0 km/h (0 Bft) N 0 0 min 0,000 mm 0 W/m -3,1 C 0,8 C 0,0 km/h (0 Bft) 100 %
27.02.2022 23:10 0,7 C 0,7 C 0,8 C 77 % 1031,6 hPa 0,0 l/m 0,0 km/h (0 Bft) N 0 0 min 0,000 mm 0 W/m -2,9 C 0,7 C 0,0 km/h (0 Bft) 100 %
27.02.2022 23:20 0,3 C 0,3 C 0,7 C 77 % 1031,6 hPa 0,0 l/m 0,0 km/h (0 Bft) N 0 0 min 0,000 mm 0 W/m -3,2 C 0,3 C 0,0 km/h (0 Bft) 100 %
27.02.2022 23:30 0,2 C 0,2 C 0,3 C 78 % 1031,6 hPa 0,0 l/m 0,0 km/h (0 Bft) N 0 0 min 0,000 mm 0 W/m -3,2 C 0,2 C 0,0 km/h (0 Bft) 100 %
27.02.2022 23:40 0,1 C 0,1 C 0,2 C 79 % 1031,7 hPa 0,0 l/m 0,0 km/h (0 Bft) N 0 0 min 0,000 mm 0 W/m -3,1 C 0,1 C 0,0 km/h (0 Bft) 100 %
27.02.2022 23:50 0,1 C 0,1 C 0,1 C 79 % 1031,7 hPa 0,0 l/m 0,0 km/h (0 Bft) N 0 0 min 0,000 mm 0 W/m -3,1 C 0,1 C 0,0 km/h (0 Bft) 100 %
_ Min-Zeit 07:10 07:10 07:30 16:00 17:20 - 00:00 - - - - - 22:50 07:20 00:00 00:10
Minimum _ -0,6 C -0,6 C -0,6 C 52 % 1030,3 hPa - 0,0 km/h (0 Bft) - - - - - -3,4 C -0,6 C 0,0 km/h (0 Bft) 87 %
_ Max-Zeit 15:30 15:30 15:30 07:10 09:30 00:00 11:40 - - 08:30 14:00 12:00 10:50 15:30 13:00 02:50
Maximum _ 8,3 C 8,0 C 8,3 C 89 % 1032,8 hPa 0,0 l/m 8,6 km/h
O-SO (2 Bft)
- - 10 min 0,229 mm 679 W/m 0,6 C 8,3 C 30,6 km/h
O-SO (5 Bft)
100 %
Durchschnitt _ 2,9 C 2,8 C 3,0 C 73 % 1031,6 hPa #0,0 l/m 1,1 km/h (0 Bft) O-SO - #8:10 h #1,524 mm 313 W/m -1,6 C 2,8 C 6,6 km/h (2 Bft) 99 %
PRIVATE WETTERSTATION BILLIGHEIM-ALLFELD - www.neckar-odenwald-wetter.de - Holger Sonntag